ECMWFFLT1_925_rhum_048.txt.gz
RH
66 66 65 62 60 58 56 55 54 54 52 51 50 49 48 48 46 45 46 46 48 51 53 53 54 55 56 57 60 63 64 64 69 74 73 73 72 70 66 63 67 76 77 71 68 68 65 60 58 57 58 62 65 64 62 62 62 62 62 62 60 60 61
73 74 73 71 67 64 61 59 58 58 57 55 54 53 52 51 50 50 49 48 48 49 52 55 54 54 55 56 60 65 68 68 71 78 82 81 79 76 72 68 69 72 75 73 69 68 68 64 61 60 57 58 61 58 54 54 56 54 53 51 49 53 57
80 81 81 79 76 72 68 65 63 62 61 60 59 58 57 55 54 55 56 56 55 50 49 51 52 54 54 55 60 64 67 72 75 79 80 79 79 81 78 73 71 70 71 72 69 67 68 67 64 63 61 58 58 58 55 52 52 53 55 52 50 56 62
85 86 85 84 82 79 76 72 69 67 65 63 62 62 62 61 60 60 62 67 69 66 63 59 57 55 54 55 58 58 60 65 71 78 82 79 78 80 80 78 78 76 71 68 67 65 65 67 66 63 61 59 58 60 60 56 52 55 60 58 57 61 63
89 90 90 89 87 84 82 78 75 73 71 68 66 64 63 64 64 63 63 67 71 74 76 78 77 71 63 60 60 60 59 58 62 78 91 89 85 85 82 78 79 82 79 75 73 70 65 65 66 64 61 59 58 60 62 60 55 58 65 66 65 67 66
93 94 94 93 92 90 88 86 83 81 78 76 72 69 67 65 66 66 66 66 65 64 65 70 80 86 82 79 81 79 73 65 67 83 96 95 93 93 90 83 77 79 82 81 79 78 74 70 68 66 64 61 60 63 65 64 61 63 70 73 73 73 72
96 97 97 97 96 96 94 92 91 89 87 85 81 76 74 70 69 69 69 70 68 66 64 62 67 81 89 92 96 98 93 88 88 92 94 93 91 91 94 92 86 83 84 83 81 80 78 75 71 69 69 67 64 65 68 68 71 75 76 77 79 78 76
99 99 99 100 99 99 99 97 97 96 93 91 89 85 83 79 77 75 73 73 72 71 72 69 65 69 74 77 85 93 94 95 98 96 90 88 89 90 94 98 96 93 92 90 88 86 81 77 75 73 72 71 70 75 78 76 80 85 82 79 81 80 78
100 100 100 100 100 99 100 100 100 100 97 96 94 92 90 87 86 84 81 79 77 75 75 74 73 70 68 68 76 86 89 90 93 95 91 87 88 90 93 96 99 98 95 91 90 89 85 83 82 78 76 78 78 81 82 78 83 89 85 82 86 86 84
100 100 100 100 100 99 100 100 100 100 100 99 99 97 96 93 90 89 87 85 85 84 82 79 78 76 74 74 77 81 84 86 87 89 92 92 92 94 94 96 100 100 97 93 91 90 88 87 87 83 78 80 81 79 79 81 86 89 87 89 96 94 90
100 100 100 100 100 100 100 100 100 100 100 100 100 100 100 99 96 93 91 90 89 89 87 86 83 81 81 81 81 79 78 79 80 81 88 93 92 91 91 94 99 100 98 96 93 89 87 86 87 84 80 80 81 80 80 81 84 87 90 95 100 96 90
100 100 100 100 101 100 100 100 100 100 100 100 100 100 100 100 100 98 95 93 92 91 91 90 89 87 86 85 83 80 76 75 75 79 88 91 82 78 83 89 95 99 100 100 97 93 89 86 84 82 80 79 80 83 83 84 85 86 89 94 97 97 92
100 100 100 101 101 101 100 100 100 100 100 100 100 100 100 100 100 101 100 98 95 94 94 94 94 93 92 89 86 83 80 76 72 68 70 70 67 73 85 92 94 97 98 98 98 98 96 92 88 83 78 77 80 82 82 85 88 86 88 92 93 93 91
100 99 100 100 101 102 101 99 99 100 100 100 100 100 100 100 100 100 100 100 98 97 96 97 97 97 95 94 91 86 82 79 74 66 60 62 70 82 92 96 96 97 96 94 97 101 100 96 93 88 83 82 84 85 84 86 88 87 87 89 89 88 90
100 100 100 99 100 101 100 97 97 100 101 99 100 100 99 100 101 100 100 100 100 99 99 99 99 99 98 98 96 91 86 82 78 75 74 79 85 89 91 93 90 89 89 88 92 98 98 95 91 85 82 83 87 89 89 89 89 88 88 89 91 94 94
99 99 100 99 99 100 100 96 94 98 101 100 100 101 100 99 99 98 99 100 100 100 99 99 101 100 99 99 98 96 95 91 85 83 84 88 91 93 95 93 81 75 77 80 84 87 87 83 77 74 78 85 90 92 91 92 94 95 96 97 98 99 97
99 99 99 99 98 99 100 97 93 95 99 100 99 99 100 100 97 96 96 96 98 101 101 100 100 100 100 101 99 98 99 98 94 91 91 94 95 96 98 91 75 67 71 79 86 89 83 72 63 64 73 83 90 94 95 97 99 98 99 100 99 98 98
100 99 100 99 97 96 99 100 96 96 99 100 96 94 97 99 98 98 95 92 93 97 98 99 100 100 100 100 98 98 100 99 97 95 96 99 99 97 95 86 73 67 69 75 81 83 78 71 65 63 67 73 80 87 94 100 99 96 96 100 99 96 94
100 100 97 95 95 96 100 101 97 95 100 101 94 89 94 98 99 100 98 95 96 95 93 97 100 99 99 101 99 98 100 101 99 97 98 100 99 99 94 82 74 72 73 74 76 74 70 68 65 62 63 65 66 71 84 95 97 96 96 97 97 95 93
100 100 95 92 95 97 97 97 95 95 99 98 90 89 94 97 97 99 97 93 92 91 92 98 100 95 94 99 100 99 100 100 98 97 99 100 101 99 91 80 74 71 69 73 76 74 72 70 68 67 69 70 66 66 75 85 90 95 99 95 93 94 93
98 98 95 93 94 94 91 90 92 97 99 94 88 90 97 99 97 98 98 94 89 87 90 97 101 97 93 95 98 100 100 101 97 94 97 100 100 96 89 82 76 68 67 75 80 80 80 79 78 80 81 81 78 75 75 77 80 91 100 98 94 93 92
95 95 96 93 89 88 88 88 90 95 97 94 90 92 96 98 98 99 100 99 97 93 89 89 94 98 98 97 99 99 100 101 97 93 96 100 99 96 92 88 80 72 73 79 82 85 89 89 89 91 90 91 93 90 85 83 86 94 100 100 96 94 93
94 96 96 90 84 85 88 89 90 91 91 90 94 95 94 93 96 97 98 99 100 98 92 87 90 94 94 95 99 101 100 100 99 96 98 100 99 98 98 94 87 82 80 81 83 89 95 95 94 93 92 94 97 96 95 96 98 99 100 98 97 98 97
95 97 94 87 84 87 88 87 90 91 88 88 93 96 95 94 95 95 96 98 99 99 97 94 95 94 87 82 87 93 95 96 99 99 99 100 100 100 99 98 95 93 90 87 88 92 93 91 89 89 92 93 91 93 97 100 99 98 97 97 98 99 100
97 96 93 89 88 90 89 88 90 91 90 90 93 94 96 98 98 97 96 95 96 100 100 99 100 99 89 81 86 94 95 94 96 98 98 99 100 99 99 99 99 99 98 97 94 92 90 88 86 87 90 90 90 94 99 100 99 99 98 99 100 100 100
98 97 95 91 90 92 94 94 94 94 93 95 97 96 97 99 100 99 98 96 96 97 95 93 96 98 93 87 88 95 99 99 98 98 98 98 99 99 99 99 99 100 100 100 98 94 91 89 87 87 88 89 92 97 100 100 100 100 100 100 100 100 100
99 100 99 96 95 97 98 97 97 97 98 99 100 99 99 100 100 100 100 98 98 96 90 88 93 98 96 93 92 94 99 99 96 95 97 97 98 99 99 100 100 100 100 99 98 97 94 92 91 90 90 93 97 99 100 100 100 100 100 100 100 100 100
100 100 100 100 99 99 100 99 99 99 100 100 100 100 100 100 100 100 100 100 100 98 91 87 91 94 93 94 94 95 96 96 94 93 93 93 93 94 95 96 97 98 98 99 99 98 97 96 96 95 93 96 99 100 100 100 100 100 100 100 100 100 100
101 101 100 100 100 100 100 100 100 100 100 100 100 100 100 100 100 100 100 99 100 98 91 86 88 91 90 91 92 93 93 93 94 94 93 91 91 90 89 91 93 95 96 98 99 99 98 99 99 98 97 99 100 100 100 100 100 100 100 100 100 99 99
98 99 100 101 100 100 101 101 100 100 100 100 100 100 100 100 100 100 100 99 95 90 86 86 89 92 92 93 94 96 97 96 95 95 94 93 93 92 90 91 93 96 97 97 99 99 99 99 100 100 99 100 100 100 100 100 100 100 100 100 100 100 100
97 98 100 101 100 100 100 100 100 100 100 100 100 100 100 101 100 100 101 98 91 86 87 91 94 95 96 97 97 98 99 98 97 97 96 95 95 95 94 94 94 95 97 98 98 99 98 99 100 100 100 100 100 100 100 100 100 100 100 100 99 99 99
98 100 101 100 100 100 100 100 100 100 100 100 100 100 100 100 99 101 100 93 86 88 93 95 97 99 100 100 100 100 99 99 98 98 98 98 98 98 98 98 97 97 99 100 100 99 98 98 99 100 100 100 100 100 100 100 100 100 100 100 98 97 98
98 101 101 101 101 100 100 100 100 99 100 100 100 100 101 100 99 101 100 92 89 95 100 98 98 100 101 100 101 100 99 99 100 99 99 99 100 99 99 99 98 98 99 100 100 100 100 99 99 100 100 100 100 100 100 100 100 100 100 100 98 97 98
94 98 100 102 102 100 100 100 100 100 101 100 100 101 100 95 92 93 94 93 95 99 101 100 100 101 100 100 100 100 98 97 98 98 98 99 100 100 99 98 98 98 99 100 100 100 100 100 99 100 100 100 100 100 100 100 100 100 100 98 95 95 97
91 93 96 101 102 100 100 100 100 100 99 99 101 101 94 87 87 91 94 95 96 98 100 101 102 102 100 100 101 99 97 96 96 97 98 98 99 100 100 99 99 100 100 100 100 100 100 100 100 100 100 100 100 99 100 100 100 100 99 95 92 93 96
92 91 93 97 100 100 100 100 101 102 101 101 103 100 92 90 96 100 100 99 99 98 98 99 100 101 101 101 101 101 99 98 97 96 97 98 99 100 100 100 100 100 100 99 99 100 100 99 100 100 100 100 100 99 98 99 99 99 97 93 91 92 94

ECMWFFLT1_925_rhum_051.txt.gz
RH
73 73 74 75 76 76 76 75 73 71 68 64 62 59 58 57 55 53 52 50 49 48 48 48 50 51 51 55 59 60 60 60 60 60 61 63 65 66 69 73 79 85 84 77 69 63 59 56 55 55 57 59 60 58 57 59 63 67 66 61 57 56 55
79 79 80 81 81 82 83 81 79 78 76 73 69 66 63 61 59 57 56 54 53 52 51 50 50 51 50 53 59 63 63 60 58 56 56 56 58 62 65 71 80 84 84 82 76 69 65 60 57 56 52 51 56 57 55 53 52 53 56 57 53 51 48
84 85 85 85 86 87 87 86 84 82 82 80 77 74 70 67 64 61 59 57 57 55 55 56 55 55 52 51 55 60 63 66 65 63 63 60 57 59 60 63 74 83 86 85 79 73 70 66 65 63 57 53 56 58 57 56 55 53 54 55 53 50 49
89 89 89 90 90 91 90 89 88 86 85 85 83 81 78 73 70 66 64 62 60 58 57 59 62 64 65 63 60 57 56 58 62 65 68 69 68 70 70 66 68 76 82 83 80 76 73 69 68 66 62 60 60 61 60 60 60 58 58 58 57 55 52
92 93 94 94 94 94 94 93 92 90 89 88 87 86 84 81 76 71 68 66 64 63 62 62 64 69 77 83 82 77 70 63 60 61 63 66 69 75 80 80 77 75 77 80 81 79 76 73 71 68 64 62 61 61 61 61 60 57 56 58 59 58 55
95 97 99 99 98 98 98 98 97 95 94 93 91 90 88 87 84 80 75 72 69 67 66 65 65 65 70 78 83 86 87 81 72 64 62 63 62 63 70 79 84 83 82 82 82 79 76 77 78 74 68 64 62 62 62 62 61 58 54 56 57 57 56
99 100 100 100 100 100 100 100 100 99 99 98 96 95 94 92 91 88 84 80 76 73 71 69 67 65 63 64 68 73 79 85 85 78 71 65 59 56 58 65 77 87 89 89 87 82 74 74 80 83 80 74 69 67 66 64 65 64 59 58 59 59 55
101 100 100 101 100 100 100 100 101 100 100 100 99 99 99 97 96 95 91 87 83 79 77 75 74 73 70 66 63 62 64 73 84 90 90 85 79 74 69 69 78 91 95 93 93 90 82 75 75 78 79 78 77 75 73 68 68 72 69 64 63 61 57
101 100 100 100 100 100 101 100 100 101 100 100 100 100 100 100 99 98 96 93 91 87 83 80 78 77 76 75 73 70 67 68 75 85 93 95 95 94 92 90 93 96 95 92 92 93 88 80 78 79 79 80 82 80 75 69 69 75 72 68 69 67 64
101 101 100 100 100 100 101 100 100 101 100 100 100 100 100 100 99 98 97 95 94 93 90 86 83 80 78 79 82 82 80 76 74 76 82 88 93 97 99 100 99 95 92 92 93 93 90 86 85 84 84 84 83 80 76 75 76 78 74 75 82 80 70
101 101 100 100 101 100 100 100 100 101 100 100 100 100 100 100 100 100 99 98 96 95 93 90 88 86 83 84 85 85 85 85 82 78 76 79 87 93 96 99 100 97 93 93 95 94 91 91 89 85 82 83 83 82 81 80 80 81 81 85 93 91 78
100 101 100 100 101 101 101 100 99 101 101 100 100 100 100 100 100 100 100 100 99 96 94 93 92 91 90 89 88 86 83 83 84 84 82 79 82 88 91 93 95 97 97 96 96 97 96 94 92 90 88 86 86 85 84 84 84 84 85 88 93 94 85
100 100 101 101 101 101 101 98 97 99 101 100 100 100 100 100 100 100 100 100 100 99 97 96 95 95 94 93 93 94 91 86 82 82 83 83 85 88 90 90 89 91 96 97 96 98 98 95 94 94 93 90 88 86 86 88 89 89 89 91 93 90 82
100 100 100 101 101 101 102 98 95 98 101 100 100 100 100 100 100 100 100 100 100 100 99 98 98 98 97 96 97 97 97 96 92 87 84 85 86 87 87 86 85 88 95 96 93 94 97 96 95 95 95 94 93 92 90 91 90 90 92 92 88 85 82
100 100 100 101 101 101 101 97 95 99 101 100 100 100 100 100 100 100 100 100 100 100 100 99 99 99 98 98 100 99 98 98 99 97 94 92 90 86 80 77 78 82 84 80 77 84 94 93 87 89 96 99 97 95 94 93 90 88 91 91 89 90 92
100 100 100 100 100 100 101 96 93 97 101 100 100 100 100 100 100 100 100 100 100 101 100 100 100 101 101 100 100 100 100 100 99 100 99 97 94 91 84 74 65 60 60 61 61 67 75 75 74 83 94 96 92 93 95 97 97 94 96 98 98 98 97
100 100 100 100 100 101 101 97 92 96 101 100 100 100 100 100 100 100 100 100 99 99 100 100 99 97 98 100 100 100 101 100 100 100 100 99 96 93 92 82 61 45 49 64 71 70 73 78 80 82 85 82 81 88 95 100 100 99 101 101 99 100 99
100 100 100 100 100 99 100 99 96 98 101 100 100 100 100 100 100 100 101 100 98 97 98 99 96 92 94 98 98 98 100 100 100 100 100 100 97 94 94 88 74 64 69 81 86 83 83 89 88 84 82 81 81 87 94 100 101 99 100 100 99 100 99
100 100 100 99 96 94 97 101 99 98 100 100 97 97 100 100 99 99 100 101 99 98 99 99 95 93 96 98 96 96 99 101 100 100 100 100 99 98 95 89 84 87 92 96 94 88 83 83 82 83 84 82 79 79 82 89 96 99 100 100 100 99 99
100 101 99 94 93 94 98 102 98 94 98 100 95 95 99 100 100 100 99 100 100 100 100 99 92 87 88 91 94 98 100 100 99 100 100 100 100 100 97 93 92 93 95 97 97 91 85 80 75 75 77 75 72 70 69 71 78 85 94 100 101 99 99
100 103 99 91 92 96 97 96 92 89 95 99 95 95 99 99 100 101 100 100 101 100 100 101 96 89 85 85 88 95 101 101 100 100 100 100 100 97 93 93 96 96 94 96 97 95 91 86 79 75 76 75 72 68 64 65 67 70 80 94 101 100 99
100 102 100 93 94 96 89 87 88 88 93 99 97 97 100 99 99 100 100 100 101 99 100 101 98 96 94 89 86 92 98 99 98 100 100 99 100 98 92 90 94 96 96 97 98 97 96 94 90 86 84 80 74 67 61 64 68 71 79 92 99 100 98
100 102 101 95 97 96 85 81 87 88 91 97 98 98 100 100 99 100 100 100 100 100 100 101 100 99 100 97 91 92 95 94 94 99 100 98 99 99 94 90 94 99 100 99 98 98 98 96 94 93 90 82 72 62 61 68 76 82 90 98 100 100 99
100 103 101 96 98 97 85 80 86 89 92 96 98 99 100 100 99 100 100 100 100 100 100 99 99 99 100 99 94 91 92 92 92 95 97 96 97 98 95 93 96 100 100 100 99 99 99 97 95 94 90 80 68 63 68 76 82 88 96 100 100 100 100
101 103 100 97 99 97 87 82 86 91 95 97 98 99 101 100 100 100 101 100 100 101 101 99 99 99 100 100 95 88 85 86 88 93 96 96 97 98 96 97 100 100 100 100 100 100 99 96 94 92 86 78 74 76 80 83 87 93 99 100 100 100 100
101 101 98 97 100 98 90 86 88 93 96 97 98 100 100 100 100 100 101 100 98 96 98 98 99 100 100 100 98 95 93 92 93 96 98 98 99 100 98 98 100 100 100 100 100 100 100 97 92 89 85 82 84 86 87 90 95 99 100 100 100 100 100
100 100 100 100 101 99 94 91 92 96 98 98 99 101 100 100 100 99 100 100 95 92 96 99 100 98 96 95 95 97 99 100 98 96 96 96 97 99 99 100 101 100 100 100 99 98 98 94 91 90 88 88 89 91 92 95 99 100 100 100 100 100 100
100 100 100 100 100 100 99 97 97 98 100 100 101 101 100 100 100 99 100 100 97 95 97 97 93 90 88 88 90 92 94 96 96 95 95 95 95 95 95 96 97 98 99 99 99 99 98 96 95 96 94 93 94 95 96 98 100 100 100 100 100 100 100
100 101 100 100 100 100 100 100 100 100 100 100 100 100 100 100 100 100 100 100 98 96 93 89 87 88 90 91 93 95 95 94 94 93 93 94 95 94 93 93 93 95 96 96 97 97 98 99 100 99 99 99 99 99 99 100 100 100 100 100 100 100 100
100 101 101 100 100 100 101 101 101 100 100 100 100 100 100 100 100 101 100 98 95 92 90 91 93 96 98 99 99 99 99 98 98 97 95 95 95 95 96 96 94 94 94 94 94 95 95 97 99 100 100 100 100 100 100 100 100 100 100 100 100 100 100
99 100 101 101 100 100 101 100 100 100 100 100 100 100 101 100 100 101 99 93 89 90 93 98 100 99 100 101 100 100 101 100 100 100 100 98 95 95 97 98 97 96 95 93 94 95 96 97 99 100 100 100 100 100 100 100 100 100 100 100 100 100 100
100 100 100 100 100 100 100 100 101 100 100 101 100 100 100 100 100 101 97 89 87 93 98 100 101 101 101 101 100 101 101 101 100 100 101 101 98 97 99 100 99 98 96 95 96 97 98 99 99 99 100 100 100 100 100 100 100 100 100 100 100 99 100
102 102 101 100 100 100 100 100 100 100 100 100 100 100 100 100 101 101 96 89 90 98 102 101 100 101 101 100 101 101 100 101 101 101 100 101 101 100 101 101 100 98 96 96 98 98 98 99 100 99 99 100 100 100 100 100 100 100 100 100 100 100 100
98 99 101 102 100 100 101 100 100 101 101 100 100 101 100 97 96 95 91 89 94 100 102 101 100 101 100 100 100 101 101 101 101 101 101 101 101 101 99 99 99 99 99 98 98 98 98 98 99 100 100 101 100 100 100 100 100 100 100 100 100 100 101
91 91 98 104 102 100 100 100 100 100 100 99 101 101 94 88 90 92 92 93 97 100 101 101 101 100 100 100 100 101 101 100 101 101 100 100 102 102 99 98 99 100 100 99 99 99 99 98 99 100 101 100 100 100 100 100 100 100 100 99 99 100 100
91 90 93 97 99 100 101 100 101 102 100 101 103 100 92 90 96 100 99 99 99 100 101 101 100 100 100 100 100 101 100 101 101 97 91 92 100 103 101 100 100 99 100 100 99 99 100 99 99 100 101 101 101 100 100 100 100 100 100 99 98 99 100

ECMWFFLT1_925_rhum_057.txt.gz
RH
58 61 65 69 73 76 79 82 86 88 87 85 84 84 83 83 83 81 79 76 73 69 66 64 62 61 60 60 61 59 57 56 57 60 62 64 68 71 72 75 80 87 87 81 76 75 72 68 64 62 61 58 53 49 48 48 49 50 50 48 48 47 48
60 64 69 73 76 80 82 86 90 91 90 89 88 88 87 87 88 87 85 83 80 77 73 70 67 64 62 61 61 59 57 57 56 56 59 61 66 72 71 70 73 78 82 80 75 73 71 68 66 63 61 59 58 54 50 48 47 47 48 47 46 45 44
65 69 73 76 80 83 87 90 93 94 94 94 94 94 92 92 93 93 91 89 87 85 82 79 75 71 68 65 63 62 59 58 57 58 61 63 64 70 73 73 74 74 77 77 72 68 67 65 63 61 58 57 58 55 52 49 45 43 44 43 44 43 41
69 72 76 80 84 89 91 94 97 98 98 97 96 96 95 95 96 96 95 94 93 92 89 87 83 79 75 71 68 67 64 62 62 60 62 63 64 67 71 74 78 80 80 79 76 69 65 62 60 59 58 58 58 57 54 50 45 42 40 39 40 40 38
73 77 80 84 90 95 97 99 100 99 99 98 97 97 96 96 98 98 98 97 97 96 95 94 91 87 83 79 75 72 70 68 66 65 65 66 68 69 70 69 70 73 77 82 85 81 74 69 67 65 64 64 64 61 58 53 47 42 40 38 37 37 36
77 80 84 91 97 100 100 101 100 100 100 100 99 99 99 99 99 100 100 100 98 98 98 97 96 93 90 87 83 79 77 74 71 70 69 70 71 73 77 77 72 67 68 73 79 82 81 78 76 74 72 69 67 65 64 60 53 47 45 45 42 40 38
80 84 91 98 101 101 101 100 100 100 100 100 100 100 100 100 101 100 100 100 98 97 98 97 97 97 94 93 89 85 82 79 76 74 73 72 72 76 83 89 88 82 77 74 74 75 76 75 73 72 70 68 67 69 70 69 68 64 56 52 51 47 42
85 90 98 102 101 100 101 100 101 100 100 101 100 100 101 100 100 100 100 100 98 97 98 98 97 97 96 94 92 89 87 83 81 79 77 75 75 77 81 86 90 91 90 87 82 77 73 70 68 66 63 62 64 73 77 75 78 79 68 59 57 53 49
91 95 100 103 101 100 101 100 101 101 100 101 101 101 101 100 100 100 100 100 99 98 100 100 100 99 97 95 93 91 89 87 86 84 80 77 77 78 80 82 85 89 93 93 90 83 76 72 69 65 61 59 59 66 73 73 77 82 77 70 68 64 60
94 97 100 103 103 101 101 100 100 101 101 100 101 101 100 100 100 100 100 100 100 99 100 101 101 100 99 98 96 95 95 95 96 95 89 83 80 78 79 81 84 86 89 92 91 86 79 75 72 67 62 60 56 54 59 67 76 83 79 76 79 76 68
95 99 101 103 102 101 101 100 98 101 102 100 100 100 100 100 100 100 100 100 100 100 100 100 100 100 100 100 99 99 100 100 101 101 99 96 92 87 82 80 80 81 82 86 91 89 83 79 74 67 62 60 57 54 58 68 80 86 83 83 86 85 77
97 101 101 102 101 101 101 97 96 101 102 100 100 100 100 100 100 100 100 100 100 100 100 100 100 100 100 100 100 100 101 101 100 100 100 101 100 99 95 89 84 80 77 77 83 90 91 87 81 74 67 61 58 61 69 80 88 90 89 88 87 87 82
100 101 101 101 101 101 100 95 93 98 101 100 100 100 100 100 100 100 100 100 100 100 100 100 100 100 100 100 99 100 100 100 100 100 100 100 100 100 100 99 95 91 85 78 76 81 85 85 86 87 82 71 65 68 77 84 88 89 90 91 90 88 81
102 101 100 100 100 101 101 94 88 92 99 101 100 100 100 100 100 100 100 100 100 100 100 100 100 100 100 100 100 100 100 100 100 101 101 100 101 100 99 100 100 99 98 93 86 83 78 74 76 83 86 83 78 79 83 86 89 89 91 95 95 92 86
101 101 99 100 101 101 100 92 85 91 100 101 100 100 100 100 100 100 100 100 100 101 100 100 100 101 100 100 101 100 100 100 100 101 101 100 100 100 99 99 97 95 97 99 97 94 88 82 75 71 72 74 74 76 79 82 85 90 95 98 96 93 91
101 101 100 99 101 102 98 88 83 90 99 100 100 100 100 100 100 100 100 100 98 97 100 101 100 100 101 100 99 98 99 101 100 100 101 100 100 100 100 98 93 90 94 98 98 98 97 95 89 80 71 63 60 65 73 80 87 94 98 99 95 92 91
100 100 100 99 99 99 96 87 81 88 97 100 101 100 99 101 100 97 99 101 93 86 93 101 101 99 100 100 99 97 98 100 101 100 100 100 100 100 101 99 95 95 99 100 99 99 98 96 94 90 85 78 73 75 81 89 96 98 96 96 94 91 89
100 99 99 99 96 96 98 92 84 88 97 101 100 100 100 101 99 94 94 99 95 83 82 91 99 101 101 101 100 99 99 101 101 100 100 100 100 100 100 100 98 99 100 99 100 100 99 97 94 90 89 89 89 89 90 95 99 98 96 97 96 91 87
101 101 99 98 94 94 99 97 88 87 95 100 100 100 100 99 100 97 95 98 100 93 85 83 84 88 93 99 101 99 99 98 97 99 101 99 100 101 99 98 99 100 99 100 101 99 96 97 98 96 93 91 90 90 93 98 101 99 99 98 97 94 93
102 101 98 95 94 92 93 95 91 88 93 99 100 98 97 99 101 100 99 99 100 100 97 89 81 78 83 93 98 97 97 95 92 98 102 99 100 102 97 94 98 100 99 99 98 96 94 93 94 97 99 98 94 91 91 96 99 99 100 100 99 98 97
100 101 98 93 91 90 89 92 93 92 95 100 101 96 95 99 100 99 100 101 99 100 100 98 95 88 82 88 95 96 99 97 91 93 99 101 101 98 92 92 97 98 98 99 98 98 98 96 95 97 99 99 98 95 92 93 94 94 94 96 99 100 99
98 100 98 92 89 88 88 91 94 97 99 100 98 96 97 100 100 98 99 101 100 100 99 99 102 96 87 92 100 98 96 96 91 90 95 98 99 96 92 93 97 98 99 100 100 100 101 100 100 100 100 99 97 95 92 90 90 89 86 86 91 98 100
97 98 99 97 92 88 87 89 93 98 102 100 97 95 97 99 100 99 100 101 100 100 99 98 100 98 93 96 100 97 95 97 96 96 96 96 97 97 96 97 99 100 101 101 101 101 100 100 100 100 100 98 92 88 85 84 82 78 72 71 78 87 95
99 100 101 100 96 90 85 88 94 98 100 99 96 93 94 98 101 100 100 101 100 100 99 98 97 98 98 98 99 99 97 96 96 98 99 99 98 96 94 97 100 100 100 101 101 100 100 100 100 100 100 98 93 88 85 83 78 70 66 70 76 80 87
101 100 100 100 101 96 87 88 96 99 94 89 87 88 92 98 101 99 99 101 101 100 100 99 98 99 100 99 99 97 92 87 89 96 98 99 99 96 94 97 101 100 100 100 100 100 100 100 99 98 95 94 95 95 95 93 90 86 85 88 90 89 90
100 100 100 100 101 100 94 93 98 97 88 78 77 83 89 94 98 100 100 99 98 97 98 99 99 100 100 99 98 95 90 89 93 97 98 97 95 94 95 98 100 100 100 100 100 100 100 99 99 97 94 93 95 97 98 99 99 99 98 98 97 97 97
101 101 101 100 100 100 99 98 97 93 85 77 79 87 92 95 99 100 95 91 92 95 97 98 100 101 99 97 96 94 93 94 96 97 97 96 92 91 92 97 100 100 100 100 100 99 98 97 97 97 95 95 98 99 99 99 100 100 100 99 99 100 100
100 99 99 101 101 101 100 98 95 92 87 85 90 97 99 100 101 97 90 90 96 99 100 100 100 98 94 91 91 91 92 94 95 96 97 97 94 92 91 93 97 99 100 100 100 99 98 97 97 97 96 96 98 98 97 97 98 99 100 100 100 100 100
95 92 95 100 102 99 99 99 97 95 94 95 99 101 100 100 101 98 94 97 100 99 99 99 97 94 92 91 92 93 93 94 95 96 98 99 98 97 94 92 94 96 97 98 99 100 100 100 99 99 97 97 98 98 96 96 98 100 100 100 101 100 100
94 91 96 101 101 98 98 100 100 98 98 100 100 100 99 100 101 100 99 100 100 97 96 95 95 96 97 98 98 98 98 98 99 98 98 100 100 100 99 97 97 97 96 96 96 97 98 99 100 100 100 100 100 99 98 99 99 100 100 100 100 100 100
98 98 100 101 100 99 99 100 99 98 99 101 100 100 100 100 100 100 100 100 100 97 95 94 96 99 101 101 100 100 100 100 100 100 100 100 100 100 101 100 100 100 100 99 97 96 96 96 97 99 100 100 100 100 100 100 100 100 100 100 100 100 100
99 100 101 100 100 101 99 99 100 99 100 101 100 100 101 100 100 101 100 99 99 99 98 98 99 100 100 100 101 101 100 100 101 100 101 101 100 99 100 100 100 100 101 101 100 99 97 96 96 97 97 97 97 98 99 99 100 100 100 100 100 100 100
101 101 101 100 101 101 100 100 100 100 100 100 100 100 100 100 100 101 98 97 98 100 101 101 100 100 100 101 101 101 101 101 101 101 100 99 99 101 101 101 101 100 100 101 101 100 99 98 97 98 98 98 99 99 99 100 100 100 100 100 100 100 100
96 97 100 102 101 100 100 101 100 100 100 100 100 100 100 100 101 100 97 96 99 101 101 100 100 101 100 100 100 101 101 100 101 100 96 91 93 100 102 101 101 101 100 100 101 101 100 99 98 99 100 100 100 100 100 100 100 100 100 100 100 100 100
86 86 92 99 100 99 100 101 100 100 101 100 100 101 100 100 100 99 98 98 100 100 100 100 100 100 100 100 100 100 100 100 101 101 97 91 92 97 101 101 101 100 100 101 101 101 101 101 100 100 101 101 100 100 100 100 100 100 100 100 100 100 99
88 84 87 95 100 100 100 101 100 100 100 100 101 100 97 96 99 99 99 100 101 100 100 100 100 100 100 100 100 100 100 101 102 100 96 92 90 93 99 102 101 100 100 101 101 101 102 102 101 100 100 101 101 100 100 100 100 100 100 100 100 100 99

ECMWFFLT1_925_rhum_060.txt.gz
RH
54 54 57 59 59 60 63 67 70 70 71 77 85 88 87 86 85 84 84 84 83 81 79 76 74 72 69 68 67 67 66 66 66 66 65 64 66 67 69 71 76 84 84 77 74 72 71 69 68 67 66 63 59 54 50 48 46 45 44 44 45 48 55
52 53 57 59 58 62 67 70 73 72 73 80 88 91 90 89 88 87 87 87 87 85 83 82 79 77 74 71 69 68 67 66 65 66 67 66 66 69 70 71 74 80 83 80 74 70 68 64 61 61 61 60 60 56 51 48 46 43 43 43 42 43 45
53 56 59 59 61 66 70 72 75 77 77 81 89 93 94 93 92 91 91 92 93 92 90 88 86 84 82 79 76 72 69 68 66 65 67 66 65 67 67 66 68 74 79 79 73 68 67 65 61 59 58 58 57 54 52 51 47 44 43 41 40 40 40
56 58 59 61 65 69 72 75 79 81 83 86 92 97 97 98 97 95 95 95 95 95 94 93 92 91 90 87 85 82 77 74 71 68 67 67 66 66 67 67 68 72 76 80 79 75 71 71 68 63 60 59 57 57 56 54 51 49 45 41 39 39 38
59 59 61 65 69 73 76 79 84 87 90 94 98 100 99 99 99 98 98 98 97 98 97 97 97 95 95 94 91 89 86 82 78 75 72 71 69 69 70 70 69 69 71 76 82 82 77 75 75 73 70 67 65 65 64 60 57 53 48 43 40 38 37
59 61 65 70 73 76 78 83 91 95 97 99 100 100 99 99 99 99 100 99 99 100 100 99 98 97 97 99 97 95 93 89 85 81 78 75 74 72 72 72 72 71 71 73 76 76 72 71 72 73 74 73 71 71 69 66 61 56 54 51 47 42 38
63 65 70 74 76 78 83 90 98 100 100 100 100 100 100 100 100 100 100 100 100 100 101 100 97 96 96 98 99 98 96 95 92 88 84 81 78 76 76 77 77 77 77 78 77 75 72 69 66 67 69 69 68 69 69 68 68 68 64 58 52 46 39
66 70 74 77 78 82 91 98 101 101 100 101 100 100 101 100 100 100 100 100 100 100 101 100 97 94 95 96 97 97 97 97 96 94 91 87 84 82 81 81 82 83 85 86 87 86 82 77 73 69 67 65 64 66 67 67 70 72 66 58 56 54 51
70 75 77 79 81 87 95 101 101 100 100 101 100 101 100 100 100 101 100 100 100 100 100 100 97 93 91 91 92 94 97 98 99 98 96 92 90 88 86 85 86 88 91 94 97 97 93 89 86 79 72 69 66 66 65 61 62 65 65 64 64 64 60
76 79 78 81 85 88 95 100 101 100 101 100 100 101 101 100 100 100 100 100 100 100 101 100 98 94 91 92 93 95 98 100 100 100 98 96 94 92 90 90 90 92 93 95 97 96 94 94 92 84 77 73 68 64 62 59 59 62 62 62 67 67 56
80 80 81 84 87 90 97 101 101 101 101 100 100 100 100 100 100 100 100 100 100 100 100 100 100 99 98 99 98 98 100 100 100 100 100 100 99 97 94 92 91 91 91 93 95 93 92 93 91 84 77 74 70 66 63 61 58 59 58 61 71 71 59
82 82 84 87 90 95 98 99 99 101 101 100 100 100 100 100 100 100 100 100 100 100 99 100 100 100 100 100 100 100 100 100 100 100 100 100 100 100 99 97 94 91 89 90 91 91 90 89 87 85 80 76 72 68 66 64 60 59 59 62 70 75 74
84 85 88 92 96 99 99 96 96 100 102 101 99 100 100 100 100 100 100 100 100 100 100 100 100 100 100 100 100 100 100 99 99 99 100 101 100 100 100 100 99 97 93 90 87 86 86 82 80 83 83 79 76 73 69 67 64 63 61 61 69 82 86
87 88 91 98 101 102 100 94 90 95 101 101 100 100 100 100 100 100 100 100 100 100 100 100 100 100 100 100 100 100 100 100 99 99 99 100 100 100 100 100 100 100 100 97 92 88 84 79 77 77 78 78 80 82 81 76 69 64 64 70 79 88 90
89 91 96 101 102 103 100 91 88 96 101 100 100 100 100 100 100 100 100 100 100 99 99 100 100 100 100 100 100 100 99 100 100 100 100 100 100 100 100 100 99 98 99 99 98 96 91 86 83 78 76 75 76 81 85 84 80 75 76 83 89 91 91
95 98 101 101 100 102 100 92 92 100 102 100 100 100 100 100 100 100 100 100 98 97 98 99 98 99 100 100 100 100 100 100 100 100 100 100 100 100 100 98 93 93 97 97 98 100 98 95 92 89 86 82 79 78 76 76 82 86 86 87 89 91 90
100 101 103 102 100 101 101 93 89 92 96 99 101 100 100 100 100 100 100 99 99 99 99 98 93 93 98 100 100 100 99 100 101 100 100 100 100 100 101 97 90 91 97 99 99 100 100 99 99 97 96 94 92 89 81 76 80 83 84 87 91 94 92
102 101 102 101 99 100 101 93 83 82 91 100 101 99 100 100 100 101 99 99 99 95 94 97 91 83 86 93 99 101 100 99 99 99 99 101 100 99 101 98 94 95 97 98 100 100 99 100 101 100 100 99 99 98 93 88 83 76 77 87 93 93 89
103 102 101 100 99 100 102 98 88 83 91 100 100 99 101 100 99 100 99 100 99 91 89 98 96 82 76 80 86 93 97 98 99 100 101 99 99 101 100 95 95 100 99 98 100 99 97 98 97 98 101 100 100 98 96 94 88 75 73 83 90 89 88
102 101 100 100 101 100 99 98 91 83 85 95 100 100 100 99 99 101 100 100 100 96 94 97 96 88 83 80 78 80 86 90 95 98 100 99 100 101 94 87 92 98 99 99 100 99 98 96 93 94 98 100 100 99 95 95 95 88 84 87 90 92 94
100 101 101 100 100 97 92 91 90 85 85 93 101 100 99 100 101 100 99 97 98 100 100 98 94 90 91 93 91 89 90 92 94 94 94 97 100 97 89 85 90 95 96 99 101 100 100 100 97 96 97 98 100 101 98 96 94 93 95 98 98 98 98
101 102 101 99 97 93 89 87 88 89 89 94 100 101 99 100 100 98 97 97 98 99 100 100 94 88 91 99 100 97 97 99 98 95 92 93 95 95 95 95 95 96 98 100 101 99 99 101 100 99 98 97 97 97 99 100 96 90 89 95 99 101 101
103 103 102 100 96 90 87 87 90 93 94 96 99 100 98 96 96 97 98 99 100 100 100 100 93 86 89 98 99 96 95 96 97 96 97 97 93 92 96 98 98 100 100 100 100 100 100 100 100 100 100 99 95 92 92 96 98 95 90 88 91 94 97
103 103 102 101 98 93 90 90 92 95 98 99 100 100 99 95 94 96 98 99 100 100 99 99 95 90 93 98 97 96 96 97 97 98 100 97 89 84 84 86 91 98 101 99 100 100 99 99 99 99 99 97 93 90 90 91 94 96 95 92 89 88 89
102 102 100 100 101 96 90 89 92 96 99 101 100 97 94 93 94 95 96 97 99 98 97 95 95 96 97 97 97 98 99 98 96 94 92 90 86 83 81 81 86 95 100 100 100 100 100 99 98 97 95 94 92 92 95 97 97 97 97 95 92 90 85
101 101 100 100 101 96 90 89 93 98 100 99 94 85 80 84 92 95 95 97 99 97 94 93 94 96 97 98 99 100 97 92 88 85 86 91 94 92 89 87 87 92 98 100 100 100 99 98 97 97 95 96 96 98 99 99 98 98 97 95 94 95 94
100 100 100 101 100 97 94 93 95 99 100 96 86 77 76 82 85 87 94 100 95 86 85 90 95 97 98 99 99 96 91 89 90 91 93 97 99 98 95 91 87 89 96 100 100 100 99 97 98 99 98 98 99 100 100 99 99 99 99 97 97 98 101
102 100 99 101 101 100 98 98 99 100 96 88 80 79 86 91 90 90 97 96 86 81 87 96 99 100 100 99 97 94 92 93 96 98 98 99 100 100 98 96 92 91 97 100 99 100 100 99 99 100 100 100 100 100 100 100 100 100 100 99 100 100 99
99 95 92 95 98 100 101 100 98 94 90 87 88 92 97 98 97 99 99 91 85 91 98 100 100 100 100 99 97 96 96 96 96 97 98 99 100 100 100 99 97 96 97 98 98 99 100 100 100 100 100 100 100 100 100 100 100 100 100 99 100 100 99
95 88 87 90 92 97 101 98 94 92 92 94 96 97 96 95 96 99 98 92 94 100 101 99 100 101 99 97 98 98 99 99 99 98 97 97 99 99 99 100 99 99 99 99 98 99 100 100 100 100 100 100 100 100 100 100 99 100 100 100 100 100 99
99 94 95 96 96 98 100 98 96 96 96 96 95 95 97 98 98 98 96 95 98 101 99 97 99 100 99 98 98 100 100 100 100 100 98 98 99 99 100 100 100 100 100 100 100 99 99 99 100 100 100 100 100 100 100 100 99 99 100 100 100 99 97
100 100 100 99 99 100 98 96 97 96 95 95 96 98 99 100 99 99 99 99 100 99 98 97 98 99 100 100 99 100 100 100 100 101 100 98 98 98 99 100 100 99 100 101 101 100 100 99 99 99 99 99 100 100 100 100 99 99 99 100 100 100 97
100 101 100 100 101 101 99 98 98 98 97 98 98 99 100 100 100 100 100 99 97 96 98 100 100 100 100 100 100 100 100 100 101 100 95 92 93 96 99 100 100 100 100 100 101 101 101 101 100 99 98 97 97 98 99 99 99 98 99 99 100 100 99
100 99 99 98 97 97 100 101 99 98 99 100 99 100 100 99 100 100 99 98 98 99 101 101 100 100 100 100 100 99 98 99 101 99 94 88 86 91 97 100 100 100 100 100 101 101 101 101 101 101 100 98 97 97 98 99 99 99 100 100 99 99 100
97 94 92 91 90 91 96 100 100 99 100 100 100 100 100 99 100 100 99 99 99 100 101 100 100 100 100 99 99 99 98 99 100 99 96 90 83 83 91 99 101 100 99 100 100 100 101 100 100 101 101 100 100 99 99 100 100 99 100 100 99 99 100
95 90 86 87 92 96 99 100 100 99 100 100 100 99 97 99 101 101 100 101 101 100 100 100 100 100 100 99 100 100 99 100 101 100 97 92 85 81 86 95 100 98 98 99 100 101 101 101 101 101 101 101 100 100 100 100 100 100 100 100 100 100 99

ECMWFFLT1_925_rhum_066.txt.gz
RH
46 46 45 43 43 43 45 46 48 50 52 54 55 55 57 59 61 63 64 64 67 70 73 74 75 75 72 70 67 62 59 59 60 60 59 57 55 55 57 58 59 62 61 57 53 50 49 50 52 51 53 57 60 62 64 65 66 67 66 61 58 61 61
46 46 46 45 44 44 45 46 49 52 54 56 57 58 59 61 63 64 65 67 70 71 73 75 78 79 79 77 75 73 68 64 63 63 62 61 60 60 60 60 62 63 62 60 56 52 48 47 50 51 50 52 55 56 57 59 62 66 67 61 58 64 62
47 47 47 46 46 46 46 48 51 54 56 58 60 62 62 63 64 66 68 70 72 73 74 78 82 84 83 82 82 82 79 74 71 69 68 68 66 65 64 63 62 63 63 62 59 56 52 48 48 49 49 49 50 51 53 57 60 62 62 60 62 64 58
50 49 49 49 49 49 50 51 52 55 58 60 63 66 67 67 68 69 71 73 75 77 76 79 85 87 87 87 87 88 85 82 81 78 75 74 73 71 68 66 64 63 63 62 61 59 56 51 47 47 48 48 48 50 53 55 57 59 61 64 65 62 56
53 52 52 52 52 52 53 53 54 56 59 62 65 68 69 72 74 76 78 78 80 85 86 87 89 91 92 92 92 92 90 87 86 85 81 78 76 74 72 69 67 64 63 63 62 61 59 55 52 50 50 51 52 53 55 58 62 64 68 70 67 63 58
57 57 56 55 54 55 54 55 56 57 60 63 66 67 70 75 77 78 81 83 84 91 96 96 97 96 97 98 97 97 96 93 93 92 89 85 82 79 76 75 72 68 66 65 64 62 61 59 56 52 50 52 53 54 55 59 61 63 69 73 70 63 56
61 60 60 58 57 57 57 58 59 61 63 65 66 70 74 77 78 79 85 90 92 97 99 99 100 99 99 100 100 99 99 99 99 98 97 94 92 88 84 82 79 76 73 71 68 66 64 61 59 55 52 51 51 53 54 54 54 55 60 66 69 65 57
63 63 62 62 62 62 61 63 65 65 67 69 71 75 78 79 82 87 91 94 97 99 100 99 100 100 100 100 100 100 100 100 99 99 100 99 98 96 93 90 86 83 81 78 75 72 68 65 62 59 55 53 50 51 54 53 52 52 51 54 62 65 63
66 67 66 65 66 66 67 69 70 70 72 74 76 80 85 88 91 93 94 95 96 98 100 100 100 100 100 100 100 100 100 100 99 99 99 99 99 100 98 96 92 88 85 82 78 75 72 68 65 63 60 57 54 52 52 52 51 51 51 51 55 58 59
71 73 73 71 70 71 72 72 73 76 80 83 84 88 94 97 97 97 97 97 97 98 100 100 100 100 100 100 100 100 100 100 100 100 99 99 100 100 100 99 97 92 87 83 79 76 74 71 69 67 64 62 60 56 54 54 52 51 51 51 52 53 54
74 77 78 77 76 77 77 76 81 87 92 94 95 96 99 100 99 99 100 100 99 99 100 100 100 100 100 100 100 100 100 100 100 100 99 99 100 99 98 98 98 96 92 87 82 78 76 75 74 72 69 67 67 65 62 59 55 53 52 52 53 54 52
77 80 81 82 84 84 82 85 92 97 97 99 100 100 100 100 100 100 100 100 100 100 100 99 99 100 100 100 100 100 99 98 98 100 101 100 100 100 99 98 98 97 95 91 86 82 79 78 78 77 75 74 72 71 68 64 61 59 57 56 56 54 52
81 83 83 85 87 90 90 92 96 98 99 100 100 99 100 100 100 100 100 100 100 100 100 99 99 100 100 99 100 100 98 94 91 94 98 100 100 100 100 100 99 98 96 94 91 87 84 82 81 80 79 78 77 77 75 72 68 65 63 62 60 57 54
86 86 84 84 85 88 89 88 90 97 100 101 100 100 100 100 100 100 100 100 100 100 100 100 99 100 100 100 100 100 100 97 90 89 94 97 100 100 99 100 100 100 99 97 94 91 88 86 84 82 82 81 83 84 83 80 76 72 71 69 67 66 65
89 88 84 82 82 84 85 83 90 100 101 100 101 100 99 100 100 100 100 100 100 100 99 100 100 100 100 100 100 99 100 97 93 93 96 98 99 100 100 100 99 97 98 100 99 95 90 87 85 84 85 85 86 86 85 84 84 81 80 79 78 79 80
91 92 87 84 83 85 87 87 93 101 101 100 101 100 99 100 100 100 100 100 100 100 100 100 100 99 100 100 99 100 100 98 96 98 100 100 99 100 101 100 96 93 92 95 99 98 94 91 89 89 90 91 91 89 87 89 93 91 89 88 84 82 79
96 95 90 88 89 90 93 94 97 102 102 100 100 100 100 100 100 100 100 100 100 100 100 100 100 100 100 100 100 100 100 99 100 100 99 100 100 100 101 97 92 91 93 94 98 99 98 96 95 97 98 98 97 96 94 96 97 94 92 90 84 78 74
98 96 91 92 93 94 96 97 98 101 102 100 100 100 99 100 100 100 99 100 100 100 99 99 100 100 99 100 100 100 100 100 100 99 100 100 99 100 101 95 90 92 95 97 99 99 99 99 99 99 100 100 100 100 99 100 98 93 91 89 82 74 70
99 99 97 97 97 96 98 99 98 99 102 101 99 100 100 99 100 100 100 100 98 96 96 97 99 100 100 100 100 100 100 99 96 97 100 100 99 101 99 93 92 92 92 93 95 93 95 99 99 99 100 100 99 100 100 100 98 95 91 86 81 74 69
99 99 99 99 98 97 99 100 98 98 101 101 99 99 100 100 100 100 100 99 95 92 92 95 98 99 99 99 100 99 99 95 91 94 99 99 100 102 95 87 89 91 89 92 92 88 87 91 95 98 100 100 99 100 100 100 100 99 94 88 82 76 71
100 100 100 100 100 99 98 98 97 96 99 102 100 99 100 100 100 100 99 95 91 87 87 90 93 95 95 96 98 97 94 91 89 91 94 96 96 94 89 89 94 95 94 98 99 95 93 94 96 99 101 100 99 100 100 99 100 100 99 95 89 80 74
100 100 100 100 101 102 101 100 99 98 100 102 100 99 100 100 99 100 97 90 85 83 83 85 87 89 92 95 97 95 91 89 89 91 92 92 90 87 88 95 100 99 98 100 100 99 100 99 99 100 100 100 100 100 100 100 100 100 100 99 96 90 82
101 101 101 100 100 101 102 102 101 99 101 103 102 99 100 100 99 100 96 89 85 83 83 85 87 89 94 98 97 93 90 89 90 92 93 94 91 88 90 97 99 98 100 101 100 100 100 100 100 100 99 99 99 98 99 100 99 99 100 99 99 98 93
101 101 99 97 97 98 99 101 99 93 92 97 100 100 100 100 99 100 98 92 87 84 83 85 86 86 91 95 94 93 93 93 92 93 94 95 93 90 91 96 98 97 96 96 98 100 99 97 98 100 99 98 96 95 97 99 99 99 100 100 99 100 99
97 97 94 92 92 91 92 97 98 92 87 90 96 100 101 100 99 100 97 92 90 90 88 86 85 86 88 92 94 93 93 93 93 94 95 95 94 95 95 95 95 93 90 88 88 90 92 92 93 95 96 97 97 97 98 100 100 99 100 100 100 99 100
92 92 90 90 89 87 87 92 96 96 96 97 99 100 100 100 100 99 97 94 94 94 89 85 85 87 87 88 91 91 90 90 92 95 97 97 97 98 98 94 90 89 86 82 79 79 83 86 87 91 95 98 99 100 100 100 100 100 100 100 100 100 100
90 89 89 88 87 87 89 90 90 93 97 100 101 101 100 100 100 99 97 96 96 94 90 89 91 93 92 93 95 94 93 92 90 92 97 100 100 100 98 94 91 89 86 82 79 80 84 88 90 93 98 100 100 100 100 100 100 100 100 99 100 100 100
89 88 88 86 85 86 88 87 88 91 94 99 101 100 99 98 95 92 89 86 86 88 90 92 94 94 93 95 96 95 95 95 93 94 98 99 99 99 96 93 92 92 90 88 86 87 89 91 91 93 98 100 100 100 100 100 99 99 99 99 99 98 96
89 88 88 86 85 86 84 82 84 90 94 99 101 100 95 91 86 83 80 80 82 84 85 87 87 83 83 86 89 91 95 98 99 99 99 99 99 95 90 90 90 90 91 93 94 92 90 88 87 89 94 98 98 97 97 99 101 100 98 98 96 92 87
92 91 92 90 89 90 87 83 86 93 97 101 102 100 93 86 82 80 78 79 82 83 83 84 84 82 83 87 88 89 94 98 98 95 92 94 95 91 88 92 94 94 95 98 99 95 91 88 86 85 88 93 96 94 91 94 99 100 98 98 95 87 81
99 98 98 95 93 92 89 88 94 99 99 96 96 94 89 82 80 80 80 80 85 89 89 86 84 84 88 90 90 91 92 94 93 90 87 88 91 92 93 96 97 98 99 100 99 97 94 92 90 87 86 90 95 96 94 94 97 100 100 97 94 89 82
100 100 100 100 98 93 85 84 91 99 100 95 87 83 82 82 84 89 92 93 95 96 93 88 83 84 88 91 91 92 92 91 90 89 87 85 85 87 93 97 97 99 100 100 98 97 95 94 93 93 92 94 97 99 98 97 97 99 101 98 94 91 86
99 100 100 100 100 97 90 86 89 97 101 94 81 77 85 92 96 99 99 96 93 90 88 87 86 88 91 92 90 89 90 90 88 88 89 88 86 87 92 98 99 99 99 100 100 97 95 96 96 96 95 96 98 100 100 99 97 97 98 97 92 89 86
100 101 100 98 98 99 98 98 97 94 90 84 81 86 95 99 98 97 94 92 90 88 87 88 89 91 93 92 89 87 88 88 89 90 91 92 92 93 95 99 101 100 99 100 99 96 96 98 99 98 94 92 92 95 97 98 99 99 97 95 91 87 84
98 101 99 99 99 95 94 98 96 87 80 84 92 99 99 92 87 87 88 89 90 90 89 88 87 88 90 90 88 87 88 89 91 92 91 91 93 93 94 98 101 101 100 98 95 93 95 99 100 99 98 94 92 93 94 94 95 98 98 96 93 89 86
96 100 99 100 101 96 93 94 91 85 87 96 99 96 90 83 78 78 81 84 87 88 88 89 89 88 89 90 90 90 90 92 94 94 94 96 94 90 89 95 100 100 99 98 95 94 99 101 100 99 100 97 93 93 93 93 95 97 97 97 96 93 91

ECMWFFLT1_925_rhum_069.txt.gz
RH
34 36 37 39 42 42 43 44 44 44 44 45 46 47 46 47 48 49 49 51 53 56 60 61 61 63 63 61 59 57 56 55 56 56 55 55 54 53 51 47 49 58 60 55 53 51 49 48 47 46 47 49 51 55 61 65 66 66 69 71 73 73 71
36 38 41 42 43 44 45 45 46 45 45 46 46 46 47 49 50 50 50 52 54 56 61 65 68 69 68 68 67 65 63 60 57 58 58 57 57 55 52 49 50 56 60 60 58 55 52 49 47 45 45 47 49 52 55 56 57 60 64 68 71 71 68
40 42 45 47 46 47 47 47 48 48 47 47 47 46 48 50 51 52 53 55 56 58 61 66 70 71 71 71 72 71 70 67 61 57 58 59 59 57 54 52 53 55 60 63 60 57 54 51 50 47 45 46 47 48 50 51 52 55 59 63 66 66 64
44 47 50 51 52 52 51 50 51 51 50 49 50 50 51 52 53 55 57 58 60 61 63 65 68 71 74 75 76 75 75 73 68 62 61 62 61 59 57 56 57 57 59 62 60 58 56 54 52 50 46 45 46 47 50 52 52 52 52 51 52 56 60
48 52 54 55 55 55 55 53 53 53 53 52 53 55 57 58 58 59 61 62 63 65 67 67 66 71 78 82 81 82 82 80 76 72 70 68 66 65 64 63 61 59 59 61 61 59 58 56 54 52 49 48 48 49 51 53 55 57 57 57 57 60 63
50 54 57 58 59 59 58 58 58 56 56 56 56 58 59 61 63 64 65 66 66 68 70 71 72 74 81 88 87 87 89 86 82 81 79 76 73 71 70 68 66 62 61 62 62 62 60 58 57 54 52 51 50 49 50 52 53 56 60 65 68 69 66
53 56 59 61 62 63 62 62 62 61 60 58 59 60 61 63 67 68 68 70 70 71 73 77 82 83 84 90 91 91 93 92 89 88 88 85 81 77 75 74 72 69 67 67 66 65 62 61 59 57 55 53 50 49 50 51 52 54 55 57 60 64 64
57 60 64 67 67 67 68 68 66 65 64 63 62 63 63 65 69 70 72 75 75 77 78 81 89 93 91 92 94 93 96 97 96 96 96 94 91 87 84 82 80 78 75 73 71 70 68 65 62 60 58 55 53 52 51 50 52 54 54 53 54 57 61
61 64 69 73 74 72 72 72 71 69 68 68 67 67 68 69 72 74 76 77 78 82 86 88 93 98 98 97 98 98 99 99 99 99 99 99 98 96 93 89 84 82 80 79 76 74 72 69 66 64 60 58 57 55 53 51 51 52 53 53 52 51 53
67 68 71 75 76 77 78 76 75 74 73 74 73 72 73 76 77 78 79 81 82 86 91 94 97 99 99 100 100 100 100 100 100 100 99 99 99 99 99 95 90 85 82 81 79 77 74 72 70 67 63 60 57 56 55 54 53 53 53 52 53 54 53
72 73 75 77 76 79 82 82 79 79 79 82 83 80 79 82 84 83 84 86 89 89 89 93 97 100 100 100 100 100 100 100 100 100 100 99 100 99 98 97 93 89 86 84 80 77 75 74 72 70 68 65 61 59 61 62 59 57 54 54 57 58 56
76 77 78 81 81 82 84 84 83 85 87 89 91 89 88 91 93 92 90 90 92 92 91 90 94 98 100 100 100 100 100 100 100 100 100 100 100 100 99 97 92 87 87 88 84 80 78 77 76 75 74 71 68 66 67 67 65 62 60 59 59 59 58
80 81 81 84 86 87 86 84 86 92 94 94 95 94 95 98 98 94 92 91 93 95 95 92 93 98 101 100 100 100 100 100 100 100 100 100 100 100 100 100 96 91 88 88 88 85 83 81 79 79 79 77 75 74 74 74 72 69 66 64 62 62 60
84 85 85 86 87 88 89 88 89 95 98 98 98 96 97 99 98 96 95 96 97 98 98 95 95 97 98 99 100 100 100 100 100 100 100 100 100 100 100 100 100 99 96 94 92 89 86 85 83 80 79 79 79 80 80 81 79 77 75 73 69 68 65
87 88 87 87 87 89 93 92 93 98 99 99 99 97 97 100 100 99 100 99 100 100 98 98 97 95 95 97 99 100 100 99 100 100 100 100 100 100 100 100 100 100 100 99 98 95 92 89 87 85 83 82 82 82 82 84 86 86 86 85 82 80 80
91 92 90 89 88 92 96 95 97 101 100 99 100 98 98 100 100 100 100 99 100 100 99 100 99 96 95 97 99 100 100 100 100 100 100 100 100 100 100 100 100 99 100 100 100 100 99 97 94 93 91 89 88 87 86 88 93 95 95 95 91 87 85
95 96 96 94 93 97 100 97 97 101 101 99 100 99 100 101 100 100 100 100 100 100 100 101 99 95 95 97 100 100 99 100 100 100 100 100 100 100 100 100 99 100 100 100 98 98 99 99 99 99 99 98 96 95 95 96 99 99 97 94 90 84 78
95 97 98 98 98 99 100 97 97 101 101 100 100 100 100 100 100 100 100 98 97 96 98 99 97 95 96 98 100 100 99 100 100 99 100 100 100 100 100 99 100 100 100 100 99 98 98 99 100 100 100 99 97 97 99 99 96 95 95 92 88 82 75
96 97 96 98 100 100 100 98 98 100 101 100 100 100 100 100 100 100 98 96 94 93 93 93 93 96 99 100 100 100 100 100 100 100 100 100 99 100 100 99 100 99 99 98 95 94 96 98 99 100 100 100 98 96 97 97 94 93 93 91 86 80 76
97 97 97 100 100 100 100 99 98 99 101 100 99 100 100 100 100 99 97 94 92 91 90 89 90 94 98 99 100 100 100 100 100 100 100 99 101 101 97 97 99 99 97 92 84 83 88 92 94 97 97 98 100 99 99 99 98 97 95 92 88 83 79
98 99 100 100 100 99 99 99 98 100 101 101 100 100 100 100 100 99 96 92 90 88 86 86 88 90 93 98 100 100 100 100 100 99 99 100 100 95 89 93 98 99 98 95 88 86 89 92 94 95 94 95 99 100 99 100 100 99 98 95 91 87 82
100 100 100 100 100 100 99 99 100 100 99 100 100 100 100 100 100 98 95 90 87 85 83 83 85 88 91 96 99 99 100 100 97 95 97 96 91 87 86 92 97 98 99 99 97 96 97 97 98 99 97 97 99 99 98 99 100 100 100 98 95 91 86
100 100 100 100 100 100 100 100 101 100 99 100 101 100 100 100 100 99 97 91 86 84 83 83 84 85 87 92 97 98 96 94 92 93 95 93 89 89 92 95 96 97 98 99 99 99 100 100 100 100 99 99 99 98 97 97 98 99 100 100 98 96 93
99 99 98 97 97 98 99 100 101 101 101 101 100 100 100 100 100 100 97 93 87 83 81 82 83 82 84 88 92 92 90 91 94 95 94 92 90 91 93 94 94 93 93 95 98 98 97 98 98 98 99 98 97 97 96 95 96 98 99 100 100 100 99
94 95 93 91 91 92 93 96 98 99 101 101 101 100 100 100 100 100 97 94 90 84 81 80 79 80 82 86 88 89 91 96 98 97 93 91 90 91 92 92 91 91 91 94 98 98 96 95 94 94 96 94 92 93 97 98 97 98 99 100 100 99 100
89 90 88 87 86 86 87 90 91 93 97 101 101 101 100 100 100 100 98 94 89 84 81 80 79 80 84 88 90 91 94 96 96 95 93 92 91 92 92 89 87 90 93 92 92 93 91 89 88 89 92 93 92 94 98 100 100 99 100 100 100 100 100
87 86 85 84 83 84 85 85 86 88 92 97 99 100 101 100 100 100 99 95 89 85 82 81 83 85 88 90 89 90 92 91 89 90 92 93 92 92 92 89 86 86 87 86 85 85 83 81 81 82 87 93 97 99 100 100 100 100 100 100 99 100 100
86 85 84 83 82 83 84 84 85 86 86 89 94 97 99 100 100 99 97 91 86 85 84 83 87 92 93 92 91 92 92 91 88 88 92 96 97 96 96 95 93 91 89 86 83 81 80 80 83 86 89 95 100 101 100 100 100 100 100 100 100 99 100
86 85 85 85 84 83 81 80 81 84 85 88 91 94 96 97 96 94 92 88 85 87 90 91 94 95 93 90 88 88 89 89 90 91 93 96 98 97 96 96 96 96 92 87 85 84 82 82 85 86 86 90 97 100 99 99 100 100 99 100 101 99 97
92 90 89 88 86 85 85 83 82 84 89 92 94 95 94 91 87 86 88 89 89 90 89 87 87 86 83 80 79 80 81 83 86 90 93 97 97 94 91 90 90 88 87 86 88 87 83 81 82 81 80 83 90 96 97 98 100 100 99 99 99 95 92
98 97 96 94 90 89 93 95 93 93 97 97 95 94 92 87 83 82 82 85 88 87 82 79 78 77 75 74 74 75 78 79 81 85 90 93 94 91 88 87 87 85 86 88 88 86 84 84 84 84 84 84 85 88 92 96 99 100 99 98 96 92 88
99 99 99 99 96 95 96 97 98 99 100 100 95 89 85 83 80 77 75 78 81 80 77 76 76 75 76 76 76 78 82 84 85 87 88 89 90 89 87 87 87 86 87 87 85 82 83 85 84 84 86 84 82 85 89 94 98 100 98 96 93 90 89
98 97 96 96 97 98 99 99 98 97 99 102 99 88 80 80 81 80 79 81 83 82 80 79 79 80 82 83 83 86 89 90 89 89 88 86 86 86 86 87 88 87 88 91 91 87 85 85 86 86 88 87 86 88 88 89 91 94 96 95 91 87 88
92 95 95 92 89 91 95 99 99 97 96 99 96 87 83 88 91 91 90 90 88 87 86 85 85 86 86 85 86 88 89 89 89 88 86 85 84 83 84 86 89 92 94 97 97 93 90 90 90 90 90 88 87 88 89 88 90 91 94 96 92 87 86
85 92 96 94 86 83 87 93 94 89 86 88 88 87 89 91 88 85 84 85 84 84 84 83 84 86 87 87 87 87 87 88 88 87 85 84 84 84 86 89 94 98 99 96 93 91 92 93 93 92 91 88 86 87 88 88 90 91 93 96 95 90 87
85 91 97 99 93 85 82 85 85 83 86 94 96 92 87 81 75 73 73 75 79 82 82 82 84 86 87 87 87 86 86 87 86 84 83 83 83 84 87 91 96 97 96 93 90 90 93 95 93 92 92 90 88 88 89 89 90 92 93 95 96 94 90

ECMWFFLT1_925_rhum_075.txt.gz
RH
47 42 41 41 41 43 43 40 38 38 38 37 37 38 39 41 44 47 49 49 50 52 54 57 60 63 65 67 70 69 67 65 62 60 57 53 51 51 51 52 59 71 69 58 54 53 52 53 53 53 53 53 54 54 52 50 47 46 46 47 47 46 45
66 57 52 50 51 50 45 41 42 44 42 38 37 39 40 42 44 47 50 52 53 54 55 58 60 63 65 67 71 72 71 69 66 64 61 58 55 54 53 53 55 64 70 66 61 57 56 56 55 55 54 55 58 57 54 52 50 49 47 46 48 49 48
78 74 68 63 58 53 48 46 49 49 45 42 40 40 42 44 45 48 51 54 56 57 58 60 61 63 65 68 71 74 74 72 69 67 64 60 57 56 55 54 54 59 66 69 66 61 59 57 56 56 55 56 58 58 56 54 53 51 49 49 50 52 52
70 75 76 73 66 59 55 54 54 52 49 46 44 44 45 47 49 51 53 55 57 59 60 62 64 65 66 68 72 75 75 75 72 69 67 63 60 58 56 56 55 57 61 65 68 65 60 58 57 56 56 58 59 58 57 56 55 53 51 50 49 51 50
59 64 69 71 71 69 64 60 58 57 55 52 49 49 49 50 53 55 57 58 59 60 62 65 66 67 68 70 73 76 76 76 74 72 69 66 63 60 59 58 58 58 59 63 68 67 62 59 58 58 58 59 60 60 59 58 57 56 54 52 50 50 50
63 63 64 63 67 71 73 71 67 63 60 57 55 53 53 54 56 58 61 62 63 64 65 67 69 69 70 72 75 77 77 77 75 74 72 69 67 64 62 62 62 61 61 64 67 67 65 62 60 59 59 60 62 62 61 60 59 58 56 55 53 51 51
76 75 73 70 68 69 72 73 74 74 70 64 60 58 57 58 60 62 64 66 67 68 68 69 70 72 73 74 76 77 78 78 78 76 74 72 71 70 69 68 67 65 65 67 68 69 68 65 62 61 61 62 62 64 63 62 62 61 58 55 54 52 52
83 82 81 81 78 77 76 73 74 77 76 71 66 64 64 63 65 67 68 70 71 71 73 73 73 75 76 77 78 78 79 80 80 80 79 77 76 76 77 77 76 73 72 71 72 72 71 68 65 64 64 64 65 67 67 63 63 64 61 57 56 56 55
83 83 83 84 83 83 84 83 80 79 80 78 73 70 69 68 69 72 73 75 76 76 77 77 78 79 79 79 80 79 79 80 80 81 81 81 82 82 82 82 81 81 79 78 79 78 75 75 73 70 69 70 70 70 69 65 65 65 62 60 62 61 57
83 85 86 87 86 84 85 87 86 82 81 82 79 76 76 75 74 75 78 80 80 80 81 82 82 83 81 81 81 80 82 87 87 84 84 83 83 84 85 86 86 85 83 83 84 82 81 83 82 76 73 74 72 70 69 67 66 65 64 65 70 67 59
88 87 87 87 86 86 88 89 88 84 81 81 81 78 77 81 83 82 82 83 83 83 84 85 85 86 85 85 86 85 89 95 92 87 87 88 88 87 86 85 87 87 86 85 85 84 84 86 85 78 75 75 74 71 69 68 67 67 67 69 76 78 67
87 86 85 85 86 88 88 87 85 82 80 81 81 79 76 80 88 90 87 85 86 86 86 87 87 88 88 88 88 88 91 95 93 89 86 86 89 92 92 89 87 86 85 85 86 87 87 86 84 81 78 77 75 72 69 70 69 68 70 71 76 80 72
87 86 86 87 89 90 89 88 85 81 80 81 80 80 79 79 86 94 93 88 87 88 88 88 88 90 91 90 89 89 89 90 91 91 88 85 88 91 93 94 93 90 87 84 84 87 87 85 84 82 79 75 73 72 72 73 71 70 72 74 75 76 74
88 86 85 86 87 88 91 94 89 83 83 82 78 77 78 76 81 93 96 91 88 88 88 88 88 90 91 92 91 91 91 90 89 91 90 90 93 96 95 94 95 96 96 91 86 86 84 83 83 80 76 73 70 70 71 71 72 72 73 74 76 80 82
87 86 86 87 89 92 93 92 87 83 83 83 80 80 81 79 81 93 99 94 89 88 87 87 88 89 90 91 92 92 92 91 90 91 93 93 95 98 99 99 96 96 99 99 96 90 84 83 82 78 76 74 70 68 69 70 70 71 74 78 82 88 90
88 89 89 88 90 92 91 90 89 87 83 81 81 85 88 86 86 95 101 97 93 91 89 88 89 89 90 91 91 94 96 93 90 92 95 96 97 96 98 101 99 96 97 99 100 98 93 88 84 80 80 78 73 70 71 72 75 76 81 88 93 95 94
89 89 89 90 91 91 91 92 91 84 79 80 84 89 93 92 92 98 102 99 96 94 91 89 89 89 91 91 91 94 95 91 89 94 98 98 98 97 95 96 97 98 98 98 99 100 99 96 92 90 89 88 84 80 77 78 83 86 88 95 97 98 96
90 89 90 91 90 90 93 94 86 79 79 83 86 91 95 96 96 100 101 99 98 95 92 91 90 90 92 91 90 95 95 87 86 95 101 100 99 98 96 93 91 95 100 100 98 99 99 100 99 98 97 95 92 91 89 88 88 87 91 99 100 97 97
90 91 90 87 85 88 93 90 83 80 84 86 86 89 95 99 100 100 100 101 100 98 95 95 95 97 96 92 91 95 94 86 85 94 101 100 99 100 98 93 90 92 98 100 100 100 99 100 100 100 100 99 95 95 97 96 94 90 93 100 100 98 102
88 90 87 82 84 91 90 84 83 88 88 86 84 86 92 99 101 100 100 101 100 99 99 99 99 100 99 98 97 96 92 86 84 90 97 100 100 98 93 91 92 94 97 99 100 100 100 100 100 100 100 100 98 97 99 99 100 99 97 97 97 97 101
86 88 85 81 86 90 82 77 87 95 91 83 82 83 88 97 102 100 100 100 99 99 101 102 100 99 98 99 98 94 91 87 83 86 94 100 100 96 92 92 94 96 98 100 100 100 99 99 100 100 100 100 99 98 98 98 100 100 99 98 96 94 96
85 85 82 80 84 85 79 80 91 97 94 87 84 84 86 93 99 99 97 99 100 100 101 100 99 98 98 98 93 87 85 85 83 84 91 95 96 95 95 97 97 97 99 101 100 100 100 99 100 100 100 99 100 100 99 100 101 101 100 99 97 93 93
83 82 81 83 85 82 80 84 90 94 94 91 88 88 88 91 95 96 96 99 99 98 98 99 98 98 98 95 89 83 82 81 81 84 87 88 91 94 95 97 100 100 100 100 100 100 100 99 100 100 99 100 101 98 92 91 95 97 99 100 99 97 96
83 82 85 87 85 82 82 87 91 92 93 91 89 90 91 92 93 94 98 101 98 94 94 95 95 97 97 93 87 84 82 81 82 84 84 83 85 90 94 98 101 100 99 100 100 100 100 100 100 100 100 99 94 84 76 77 85 93 98 100 100 99 100
86 87 90 90 86 82 83 87 90 92 93 93 93 92 92 93 94 94 97 100 97 92 91 91 92 94 93 87 84 83 84 85 84 84 85 84 84 88 95 100 100 99 100 100 100 99 100 100 100 99 98 94 90 86 86 89 94 97 100 100 100 100 100
88 88 90 89 87 86 87 88 91 93 93 94 95 94 93 95 96 97 99 101 99 94 92 94 94 92 88 85 84 85 87 90 90 87 86 86 86 89 96 100 100 99 100 100 99 99 99 98 98 98 98 97 98 99 99 100 100 100 100 99 100 100 100
90 91 91 90 88 88 89 90 91 93 94 95 96 95 93 92 92 92 94 98 100 100 98 97 95 90 86 85 86 86 86 89 93 94 92 90 89 91 96 99 99 98 98 99 98 98 97 97 98 98 99 100 101 100 99 100 100 100 100 100 100 100 100
93 94 94 93 92 92 92 94 93 91 91 94 95 95 95 94 92 90 89 92 98 101 100 98 95 91 89 89 90 92 93 93 95 99 99 96 94 93 94 97 98 98 97 97 97 97 97 99 100 100 100 100 99 97 97 99 100 99 99 100 100 100 100
97 98 99 100 99 98 98 96 88 83 87 94 97 97 97 95 92 90 88 89 96 101 100 99 98 95 94 95 97 98 99 98 98 99 100 100 98 96 97 98 99 99 100 99 98 99 100 100 100 100 99 100 100 97 96 98 100 100 100 100 100 100 100
97 97 100 102 101 99 98 93 85 84 93 98 96 96 98 97 96 95 92 92 97 101 101 100 99 97 96 98 99 98 96 96 98 100 100 100 99 98 99 100 99 99 100 100 99 99 100 100 101 100 99 100 100 99 99 98 94 94 99 101 100 100 100
94 93 96 100 101 100 99 94 92 96 101 98 91 87 89 93 95 97 98 98 99 100 102 100 98 98 98 98 98 97 94 95 98 100 100 100 100 99 100 100 100 100 99 97 96 97 98 99 100 100 100 101 100 99 100 98 92 92 98 98 97 99 100
97 97 97 98 100 101 98 91 91 97 101 99 93 88 86 86 85 87 92 96 97 98 102 101 97 95 95 95 95 95 96 98 100 101 100 99 100 100 100 99 98 97 94 91 89 90 91 92 93 94 97 99 99 100 101 101 100 99 93 85 88 99 101
95 99 100 99 99 101 96 86 85 94 99 95 89 89 92 92 88 83 86 91 95 98 98 95 92 89 89 90 93 95 97 100 100 100 100 100 100 99 99 98 96 94 91 89 87 85 83 84 84 85 86 87 87 87 89 92 98 101 93 83 87 99 102
87 92 97 98 99 101 98 89 87 95 98 93 90 93 96 95 92 90 90 92 96 97 94 91 92 94 94 95 98 99 101 101 100 100 100 99 97 96 94 91 88 85 84 85 86 83 81 81 83 84 84 83 81 78 78 80 84 91 97 96 94 98 99
87 89 93 96 99 102 101 97 96 97 97 97 98 95 89 88 93 98 99 99 100 100 99 98 99 101 100 99 99 98 98 99 98 96 94 92 90 90 88 85 82 79 79 83 86 86 85 84 84 83 82 82 81 80 82 84 83 86 94 100 99 98 98
89 88 88 91 96 100 100 101 102 102 101 103 101 88 78 84 95 98 98 100 101 101 101 102 102 102 101 98 95 93 92 92 92 91 90 88 86 86 86 86 85 85 86 88 88 88 86 83 81 80 79 82 85 85 86 90 91 90 91 94 96 97 97